STARLINK-6270, 56421

Orbit data source: Space-Track

STARLINK-6270, 56421 is a payload satellite owned by SpaceX/Seattle (US) in LEO that was launched on Thu, 04 May 2023 UTC via an FALCON 9 launch vehicle from the Air Force Eastern Test Range (AFETR). Payload-class satellites include a variety of spacecraft equipped with specific instruments for various scientific and technological missions. These include communications satellites like Starlink; space stations such as the ISS; scientific satellites like the Hubble; Earth observation satellites from companies like Planet Labs, Umbra, and HawkEye 360; GPS; miniature CubeSats for education and research; and military/defense satellites.

Loading next visibility...
Identifier
56421, 2023-061AZ
Orbit
LEO
Country
Flag of USUS
Related business
Manufacturer
SpaceX/Seattle
Mission
Operational Commercial Communications
Bus & Motor
STARLINK, Unknown motor
Mass
305 kg wet, ~290 kg dry
Launch date (UTC)
2023-05-04 (3 years ago)
Launch vehicle
FALCON 9
Launch site
Air Force Eastern Test Range (AFETR)
Object type
Payload
Rocket body
Debris
Shape & HBR
Box + 1 Pan, 10.1 m
Radar Cross Section
11.087 m², Large (>1 m²)

Expand to show TLE details & history
Last TLE update: 3 days ago

TLE from 3 days ago
0 STARLINK-6270
1 56421U 23061AZ  26170.46900738 -.00001008  00000-0 -27130-4 0  9991
2 56421  43.0002 328.3263 0000662 290.8470  69.2311 15.27583839172485
Epoch: 2026-06-19T11:15Z
TLE epoch observation values (Epoch: 2026-06-19T11:15:22.237Z)
Latitude
-0°
Longitude
-108.2139°
Altitude
482.652 km
Speed
7.626 km/s
True Right ascension
21h 53m 18s
True Declination
0° 00' 00"
Sunlit
Object was in full shadow at epoch
Visualization orbit readout
Latitude
Unknown
Longitude
Unknown
Altitude
Unknown
Speed
Unknown
Apparent Right ascension
Unknown
Apparent Declination
Unknown
Sunlit
N/A
Visualization observer readout
Local Sidereal Time
21:34:41
Azimuth
Unknown
Elevation
Unknown
Doppler factor
Unknown
Orbital elements
Apogee altitude
485.437 km
Perigee altitude
484.528 km
Semi-major axis
6,863.12 km
Eccentricity
0.00007
Inclination
43.0002°
RAAN
328.3263°
Arg. of periapsis
290.847°
True anomaly
69.23819°
Mean anomaly
69.2311°
Eccentric anomaly
69.23465°
Mean motion
3.81734 °/min
Orbital period
94.31 mins
BSTAR
-0.00002713
Loading maneuver chart data...
Computing Atmospheric mass density...
Loading historical data...
Loading historical data...
Loading historical data...
Loading historical data...
Loading historical data...
Loading historical data...
Loading historical data...

Documentation

Showing up to 5 results
|